Find Starlink 31783

NORAD ID: 59750 Int'l Des: 2024-090 Owner: SPXS Country: US Constellation: starlink operational
LEOCIRCULAR

Current View

Loading 3D Globe...

About Starlink 31783

Starlink 31783 (NORAD 59750) is a starlink constellation satellite (v2 mini) launched May 13, 2024 by SPXS of US. It operates in LEO, CIRCULAR orbit with a mass of 730.00 kg.

About Starlink 31783

Description loading...

Upcoming Passes

Passes for default location (London). Set your location on the main map for personalized predictions.

Altitude History

Loading altitude history...

Two-Line Element Set

1 59750U 24090W 26169.76269941 .00000311 00000-0 20831-4 0 9992
2 59750 43.0066 333.0574 0001812 276.1904 83.8741 15.27577254118885
Epoch: Jun 18, 2026 • Age: 7 hours

Current Status

Altitude 494.9 km
Velocity 7.62 km/s
Sub-Earth Point -42.55°S, 41.16°W
Launch Date May 13, 2024
Age 2 years
Type internet

Technical Details

Classification Payload
Mass 730.00 kg
Dry Mass 700.00 kg
Total Mass 730.00 kg
Length 0.30 m
Diameter 4.10 m
Span 29.00 m
Shape Box + pan
Manufacturer SPXS
Bus Type Starlink V2M
Phase Status In Orbit
Owner/State SPXS/US

Most Searched